GFSGBSN_prec_cloud_132.txt.gz
Cloud_Cover
100 100 98 87 63 44 36 76 70 60 62 100 99 100 97 100 100 100 100 100 100 80 24 25 26 0 0 0 0 0 0 0 0 0 0 0 41 5 3 53 100 100 4 29 100 100 100
100 100 100 100 100 100 100 66 27 56 90 15 0 2 50 100 100 100 100 100 100 61 26 37 29 0 0 0 0 0 0 0 0 0 0 0 78 4 3 56 33 77 99 66 24 57 32
100 100 100 100 100 100 100 100 100 100 98 96 85 98 100 100 100 72 3 3 24 42 25 42 13 0 0 0 0 0 0 0 0 0 0 0 14 0 4 82 100 52 42 100 100 4 0
100 100 100 100 100 97 16 100 100 100 100 100 100 100 100 13 19 13 16 0 18 10 0 0 0 0 0 0 0 0 0 0 0 0 0 0 0 0 2 19 54 1 10 100 84 97 48
100 32 22 27 14 0 3 88 100 100 90 96 95 82 12 7 0 2 2 0 1 0 0 0 0 0 0 0 0 0 0 0 0 0 0 0 0 0 2 1 1 5 5 72 81 99 100
100 0 0 0 0 0 1 1 4 1 0 0 0 0 0 0 0 0 3 0 0 0 2 0 0 0 0 0 0 0 0 0 0 0 0 0 0 0 0 0 5 5 63 5 64 95 100
100 94 4 5 7 22 79 77 69 69 66 58 56 10 5 4 0 0 13 0 0 0 0 0 0 0 0 0 0 0 0 0 0 0 0 0 0 0 0 4 5 31 35 49 34 45 85
100 100 92 95 100 100 100 100 100 100 100 100 100 100 100 100 100 25 52 0 0 0 0 0 0 0 0 0 0 0 0 0 0 0 0 0 0 0 0 5 5 20 5 97 22 5 4
100 100 100 32 6 5 29 100 100 56 48 28 7 24 100 100 100 96 100 70 10 0 0 0 0 0 0 0 0 0 0 0 0 0 0 0 0 0 0 4 5 5 32 9 24 52 3
100 31 73 89 5 5 8 97 100 58 25 51 75 26 4 47 37 16 12 100 100 72 5 0 0 0 0 0 0 0 0 0 0 0 0 0 0 0 0 4 0 1 56 5 23 3 0
100 100 100 35 67 5 5 53 100 44 61 92 95 99 5 0 6 4 0 3 76 100 89 20 0 0 0 0 0 0 0 0 0 0 0 0 0 0 0 0 0 0 5 5 5 2 0
100 100 100 100 90 5 7 12 98 54 66 34 94 65 25 6 5 0 0 4 5 87 100 99 5 0 0 0 0 0 0 0 0 0 0 0 0 0 0 0 0 0 0 2 5 1 0
100 100 95 28 5 5 5 12 78 96 12 6 68 62 92 10 16 5 0 0 4 31 56 100 88 3 5 0 0 0 0 0 0 0 0 0 0 0 0 0 0 0 0 0 0 0 93
99 100 100 100 75 100 31 96 100 43 17 6 8 19 15 11 5 5 0 0 6 73 4 11 100 58 5 4 0 0 0 0 0 0 0 0 0 0 0 0 0 0 0 0 0 5 5
100 100 100 100 100 100 84 100 100 6 6 30 7 9 5 6 5 2 1 0 8 100 6 1 98 100 15 6 0 0 0 0 0 0 0 0 0 0 0 0 0 0 0 0 0 3 0
98 100 100 100 100 94 99 100 70 83 12 5 68 18 41 16 5 1 0 0 100 100 18 9 2 100 68 20 5 0 3 0 0 0 0 2 0 0 0 0 0 0 0 0 0 1 4
100 100 97 80 89 76 100 95 5 5 16 5 5 5 5 5 2 0 0 1 100 100 27 100 5 63 100 94 5 4 20 4 3 0 0 0 4 0 2 0 0 0 0 0 0 5 3
100 96 92 7 98 90 55 79 51 28 97 15 5 5 5 0 0 0 0 5 100 100 52 93 100 7 100 23 23 99 100 5 0 4 0 2 6 10 0 0 0 4 5 1 0 0 0
100 100 83 47 100 100 18 11 6 44 33 54 5 5 59 7 0 4 0 10 100 100 69 97 100 67 100 80 77 100 18 5 2 5 0 0 0 1 0 0 3 5 5 8 5 32 12
70 100 100 100 100 96 28 5 5 5 5 14 6 4 5 56 6 15 4 5 98 100 38 96 68 46 100 85 21 79 56 37 5 5 0 0 0 0 0 0 0 0 2 6 31 34 69
100 100 100 100 98 100 75 5 5 5 5 10 1 0 0 5 22 8 23 15 5 84 100 53 15 96 100 99 84 99 9 7 5 0 5 3 0 0 0 0 0 0 0 3 5 5 4
100 99 91 80 100 100 74 45 89 4 0 1 0 0 0 0 8 62 66 43 55 31 99 2 13 100 100 94 95 65 5 54 5 5 5 4 5 0 0 0 0 5 0 0 4 3 5
100 98 52 36 80 60 4 0 0 0 0 6 38 0 1 0 2 99 79 100 68 93 100 90 51 100 100 100 100 100 8 34 100 18 5 5 5 5 0 5 5 0 0 0 0 0 3
100 98 10 7 10 2 82 21 0 4 1 2 4 0 4 7 28 100 49 100 99 100 100 100 100 100 100 100 100 93 87 43 100 100 100 16 14 5 1 5 2 1 5 0 0 3 4
96 100 98 62 36 100 100 98 4 4 5 22 20 3 59 96 80 99 100 100 23 100 100 100 98 100 100 100 100 100 91 72 100 100 100 99 72 90 5 5 5 5 1 0 0 0 0
18 56 100 100 100 73 100 100 21 8 5 60 36 62 100 84 84 100 100 75 34 79 100 100 100 100 100 100 100 100 100 100 100 100 100 93 100 83 68 5 5 5 1 0 0 0 0
100 100 90 75 100 100 88 99 82 100 100 61 17 96 98 98 100 100 99 47 5 33 100 100 100 100 100 100 100 100 100 100 100 100 100 100 100 88 24 5 5 5 1 0 0 3 5
100 100 100 100 92 100 100 89 100 100 100 69 13 90 100 100 100 81 80 5 24 100 99 95 100 100 100 100 100 100 100 78 100 100 93 100 100 100 100 62 5 5 5 3 4 5 0
100 100 61 39 100 100 100 100 100 100 100 100 76 65 100 100 100 37 95 52 54 20 100 100 100 100 100 100 100 100 100 75 100 100 100 100 100 100 99 5 5 55 5 5 5 2 0

GFSGBSN_prec_cloud_135.txt.gz
Cloud_Cover
100 100 100 100 100 100 100 100 100 100 100 100 100 100 100 100 100 99 97 72 77 97 87 82 31 2 0 0 0 0 0 0 0 0 0 0 74 6 9 38 7 83 1 58 98 100 100
100 100 100 100 100 100 98 100 100 100 100 100 100 100 100 100 9 18 16 4 29 41 79 64 31 0 0 0 0 0 0 0 0 0 0 0 39 0 1 4 47 16 4 8 76 19 100
100 100 100 100 100 22 53 100 100 100 84 82 58 95 51 14 28 13 8 4 27 30 39 36 38 0 0 0 0 0 0 0 0 0 0 0 14 0 5 0 7 0 5 32 7 20 6
100 2 1 0 1 26 30 18 10 16 0 7 12 45 48 35 16 0 0 0 33 32 12 12 9 0 0 0 0 0 0 0 0 0 0 0 0 2 4 0 0 5 1 7 9 72 97
100 16 0 10 7 5 23 51 65 60 47 39 30 45 33 31 15 0 0 2 3 1 0 0 0 0 0 0 0 0 0 0 0 0 0 0 0 2 2 0 1 2 6 48 97 97 100
100 100 20 20 9 10 20 54 100 100 89 90 82 76 92 87 80 38 10 0 0 0 0 0 0 0 0 0 0 0 0 0 0 0 0 0 0 0 0 0 0 3 1 5 65 88 73
100 100 100 22 100 100 100 100 100 100 100 100 100 57 32 33 100 100 100 100 41 0 0 0 0 0 0 0 0 0 0 0 0 0 0 0 0 0 0 5 5 5 5 5 5 5 91
100 100 57 39 26 15 23 29 100 100 79 66 51 41 5 5 5 7 26 68 98 63 51 0 0 0 0 0 0 0 0 0 0 0 0 0 0 0 5 5 9 12 4 5 44 5 4
100 61 36 36 68 20 8 5 83 100 33 39 41 35 5 5 5 5 5 5 18 5 5 96 40 0 0 0 0 0 0 0 0 0 0 0 0 0 1 5 10 5 1 0 2 5 0
100 100 100 76 64 47 5 5 24 100 45 44 28 23 5 57 6 5 4 5 5 5 5 5 26 88 2 0 0 0 0 0 0 0 0 0 0 0 0 5 5 5 3 3 5 40 0
100 100 100 100 100 100 57 41 6 85 100 25 67 6 9 32 100 87 41 5 2 5 2 4 5 10 100 2 0 0 0 0 0 0 0 0 0 0 0 4 5 3 0 0 5 3 0
100 100 100 100 100 83 50 80 99 100 94 50 76 34 54 53 98 73 12 5 26 5 0 0 0 2 40 61 5 0 0 0 0 0 0 0 0 0 0 1 5 5 0 5 5 0 0
46 65 100 100 100 36 16 71 100 100 16 5 5 5 97 31 6 5 5 5 47 50 0 0 0 0 5 62 54 2 0 0 0 0 0 0 0 0 0 0 1 0 0 2 0 0 2
65 97 100 100 100 98 88 100 100 37 5 5 5 16 11 10 5 16 10 5 98 100 0 0 0 0 5 30 94 37 0 0 0 0 0 0 0 0 0 0 0 0 0 0 0 0 2
84 100 97 100 96 39 61 100 92 5 5 5 5 18 53 60 90 55 100 5 100 6 0 0 0 0 3 81 6 6 0 0 0 0 0 0 0 0 0 0 0 0 0 0 0 0 0
15 100 100 94 6 72 100 99 42 26 71 51 44 66 100 84 38 48 35 13 96 3 0 0 0 0 5 20 67 5 19 0 0 0 0 0 0 0 0 0 0 0 0 0 0 0 0
100 100 100 70 40 100 93 8 5 69 60 42 38 44 63 61 23 4 5 17 8 0 0 5 10 1 5 5 5 5 5 4 0 0 0 0 0 4 0 0 4 0 0 0 0 0 0
100 100 100 100 100 100 100 29 47 5 15 14 42 19 61 10 5 1 3 0 0 0 0 2 98 8 5 5 10 62 86 5 2 0 0 0 3 9 4 0 0 0 4 0 0 0 0
88 52 76 99 100 100 100 12 17 17 7 60 5 5 10 7 2 3 0 0 0 0 0 5 95 29 87 8 51 96 100 100 6 2 0 2 5 36 38 3 3 0 5 0 0 0 0
98 100 100 100 100 100 100 95 79 19 5 10 7 5 4 5 3 4 3 1 0 0 1 44 68 100 77 52 39 100 100 100 87 5 4 5 1 0 1 10 0 0 0 1 0 1 0
100 100 100 100 86 100 100 34 5 5 5 5 2 0 1 19 92 12 5 5 5 1 33 98 74 100 97 100 66 100 100 100 74 5 49 0 0 0 1 91 55 5 69 10 2 0 1
100 100 100 100 100 100 100 20 5 5 5 5 5 1 0 0 1 5 5 6 5 5 99 98 100 100 100 100 84 96 100 100 100 100 100 5 3 0 0 1 2 0 0 1 5 5 0
100 100 100 99 100 54 74 97 5 5 4 4 0 0 0 1 0 4 11 4 5 88 100 73 100 100 100 100 100 99 100 100 100 100 100 10 5 0 1 5 5 5 0 0 0 2 5
22 68 100 100 16 100 100 100 63 5 21 8 0 3 12 52 5 86 16 3 2 100 100 79 100 100 100 100 100 100 100 100 100 100 100 100 5 5 5 5 5 5 4 0 0 0 0
79 100 98 100 100 100 100 100 100 0 17 94 5 16 98 100 44 9 5 0 85 100 100 97 100 100 100 100 100 100 100 100 100 100 100 100 100 86 5 5 5 5 5 5 0 2 0
100 100 68 98 84 89 100 97 100 33 5 64 98 88 100 100 100 6 0 2 100 100 100 100 96 96 100 99 100 73 100 100 100 100 100 100 100 21 50 5 13 0 5 5 5 7 3
100 100 100 100 98 99 89 97 90 86 52 82 100 100 100 100 95 1 0 97 100 100 100 100 100 78 100 73 68 100 100 100 100 100 100 100 100 56 6 5 5 0 5 5 5 5 5
100 100 100 100 99 100 78 55 31 95 94 85 100 100 100 100 89 8 45 100 100 100 100 80 100 87 99 100 100 100 100 100 100 100 100 98 98 32 5 19 9 5 5 5 5 5 5
100 100 100 100 100 67 100 96 41 96 100 100 100 98 100 100 53 95 100 100 100 100 93 7 94 54 98 100 100 100 100 100 100 100 100 97 100 67 79 33 50 38 95 5 43 6 5

GFSGBSN_prec_cloud_138.txt.gz
Cloud_Cover
100 100 100 100 100 93 92 100 100 100 99 82 80 93 93 86 38 38 26 23 14 28 100 100 48 50 4 0 0 0 0 0 0 0 0 0 0 0 98 2 5 5 1 27 100 78 77
100 100 100 100 76 49 99 100 100 100 17 48 60 66 70 96 50 26 12 0 30 92 100 98 46 12 3 0 0 0 0 0 0 0 0 0 0 0 4 3 25 18 0 5 10 99 100
100 69 26 34 28 29 67 100 100 100 100 100 100 100 100 100 68 28 15 14 51 69 68 85 21 1 0 0 0 0 0 0 0 0 0 0 0 40 0 0 3 1 5 41 13 14 10
100 97 23 36 31 33 35 93 100 100 100 100 100 100 100 100 38 27 35 30 95 74 36 23 2 0 0 0 0 0 0 0 0 0 0 0 0 0 0 0 0 0 5 13 5 14 23
100 100 99 21 22 25 32 90 100 100 100 100 100 100 100 100 29 20 56 43 12 2 1 0 2 0 0 0 0 0 0 0 0 0 0 0 0 0 0 0 0 4 3 24 20 14 37
100 100 55 66 76 54 30 18 62 100 100 100 100 100 100 100 99 100 100 93 71 2 1 0 0 0 0 0 0 0 0 0 0 0 0 0 0 0 3 1 0 2 5 5 58 31 25
100 100 41 56 100 100 100 100 32 89 100 92 100 74 40 25 35 98 33 5 40 59 13 21 14 0 0 0 0 0 0 0 0 0 0 0 0 0 0 0 4 4 5 5 5 5 5
100 96 100 100 100 55 12 7 5 27 100 100 100 76 39 5 9 10 15 8 5 5 5 4 13 5 5 0 0 0 0 0 0 0 0 0 0 0 0 1 5 0 0 5 5 0 0
100 99 100 100 64 42 5 5 20 47 100 100 82 40 14 7 95 35 12 14 5 5 5 12 5 2 10 5 3 0 0 0 0 0 0 0 0 0 0 5 5 2 4 0 1 5 1
100 100 100 100 100 95 85 44 17 100 100 100 76 23 18 83 21 11 8 5 22 68 5 4 0 0 2 5 5 5 0 0 0 0 0 0 0 0 0 1 4 5 2 3 2 0 1
97 100 100 100 100 100 100 98 98 100 100 96 92 6 65 99 99 54 38 98 100 64 5 3 5 5 0 0 6 58 5 0 0 0 0 0 0 0 0 0 5 5 0 5 0 2 0
62 47 90 99 100 100 90 96 100 100 90 53 95 7 81 71 90 77 76 96 92 88 71 2 1 2 1 0 2 5 11 6 1 0 0 0 0 0 0 0 5 5 5 4 0 0 0
49 100 100 92 100 100 42 95 100 98 5 86 60 8 99 26 5 5 10 65 100 100 6 24 9 5 3 2 0 4 5 8 93 0 0 0 0 0 0 0 5 31 5 0 0 0 0
25 100 100 100 100 95 60 100 91 69 11 8 51 51 28 7 5 5 16 100 100 84 5 5 4 5 5 2 0 0 8 5 100 21 0 0 0 0 0 0 1 0 0 4 0 0 0
5 100 99 100 32 61 100 93 96 43 43 5 20 54 29 35 28 19 81 100 65 27 5 0 5 5 5 0 0 0 4 45 94 82 0 0 0 0 0 0 0 0 0 0 0 0 0
100 100 100 84 83 100 100 100 61 19 6 6 25 10 29 64 100 71 50 73 15 100 5 0 4 4 5 0 0 0 4 40 100 100 0 0 0 0 4 0 0 0 0 0 0 0 0
32 100 100 84 93 100 100 100 24 62 15 17 81 33 42 94 24 24 15 70 58 98 4 0 0 0 0 0 0 0 20 47 100 100 0 0 0 1 5 2 0 0 0 0 0 0 0
5 100 100 81 100 100 100 71 5 16 8 27 5 9 40 6 6 8 60 6 77 41 0 0 0 0 0 0 0 3 100 100 100 100 5 0 0 1 5 65 4 0 0 0 0 0 0
100 100 100 100 100 100 100 33 22 24 28 69 23 57 11 9 7 40 9 5 5 2 0 0 0 0 5 5 2 79 100 100 100 100 56 52 3 5 5 13 13 5 0 0 0 0 0
100 100 100 100 100 92 100 100 100 100 54 29 7 5 48 53 34 29 11 5 2 0 0 0 0 0 5 35 50 85 100 100 100 100 100 100 96 20 4 16 3 5 0 0 0 0 0
100 100 100 100 100 100 100 100 100 94 72 55 38 47 19 55 52 5 5 5 5 5 4 0 0 2 7 100 100 100 100 100 100 100 100 98 12 5 13 5 4 5 0 0 0 1 0
100 100 100 100 86 95 100 100 57 100 20 6 7 6 5 5 5 5 6 5 5 5 5 48 11 2 4 52 100 100 100 100 100 100 100 99 7 5 1 33 5 81 50 5 5 5 5
5 65 95 92 95 100 100 100 91 78 13 59 15 21 7 1 0 0 0 3 65 3 16 5 20 2 5 99 100 100 100 100 100 100 100 100 93 6 0 0 0 0 0 0 0 0 1
6 5 99 94 88 98 100 100 100 44 95 60 6 16 6 0 0 4 5 14 97 99 100 22 31 7 64 36 91 100 100 100 100 100 100 100 100 75 2 0 0 0 0 0 0 0 0
100 100 100 100 66 100 87 100 100 99 16 100 75 10 79 60 5 5 37 100 97 100 82 8 95 66 10 45 100 100 100 100 100 100 100 100 100 100 66 4 4 0 0 0 4 5 0
100 100 100 100 100 100 100 97 100 100 61 99 99 58 69 88 56 58 100 100 100 98 5 0 68 100 98 100 36 65 100 100 100 100 100 100 100 100 36 5 1 5 5 5 5 3 2
100 100 100 100 100 100 77 40 75 100 99 61 47 80 100 100 48 82 100 100 98 8 4 1 75 100 100 100 100 87 100 100 100 100 100 100 99 100 39 6 6 5 5 5 4 0 0
100 100 100 100 100 100 100 100 90 95 51 90 36 53 96 100 74 100 88 12 41 60 24 17 100 100 100 100 100 100 100 100 100 100 100 100 97 89 100 86 39 5 8 42 7 5 5
100 100 100 100 100 100 100 46 100 95 48 100 80 100 100 100 51 96 64 8 6 15 94 85 100 97 98 72 98 100 100 100 100 100 100 100 100 100 100 100 100 26 13 5 5 5 5

GFSGBSN_prec_cloud_141.txt.gz
Cloud_Cover
100 100 100 100 37 100 100 100 100 100 100 100 100 100 100 100 100 76 44 22 19 70 85 98 100 7 0 0 0 0 0 0 0 0 0 0 0 0 3 4 5 5 0 26 100 92 100
100 100 94 20 14 64 100 100 100 100 100 100 100 100 100 100 100 73 13 7 88 100 100 97 57 0 0 0 0 0 0 0 0 0 0 0 0 0 4 0 23 31 5 4 3 83 77
100 100 99 1 21 44 78 100 100 100 100 100 100 100 100 100 100 37 25 100 100 100 100 80 30 0 0 0 0 0 0 0 0 0 0 0 0 0 1 1 0 6 14 3 5 0 67
100 100 98 79 100 100 39 68 50 100 100 100 100 100 100 100 20 22 82 100 99 100 41 99 5 0 0 0 0 0 0 0 0 0 0 0 0 0 0 0 0 5 12 45 5 4 3
100 100 68 100 100 100 32 27 17 100 100 100 100 100 100 68 26 44 86 51 28 3 4 35 0 0 0 0 0 0 0 0 0 0 0 0 0 0 0 0 0 0 46 20 5 5 1
100 100 100 100 100 100 35 16 17 36 100 100 100 100 100 98 83 49 8 6 5 5 5 4 3 0 0 0 0 0 0 0 0 0 0 0 0 0 0 0 0 0 5 13 16 4 5
100 100 100 100 100 91 89 100 87 87 100 100 100 100 64 5 5 5 5 5 5 5 5 5 0 4 4 5 0 0 0 0 0 0 0 0 0 0 0 0 4 0 5 5 5 5 2
100 100 100 100 100 100 78 2 18 100 100 100 100 23 82 100 46 5 5 5 5 5 5 5 4 5 5 1 5 5 0 0 0 0 0 0 0 0 0 1 2 5 5 5 3 5 0
100 100 100 81 100 100 100 16 20 100 100 100 59 51 62 76 80 5 5 5 5 5 0 2 2 5 42 5 1 4 5 5 0 0 0 0 0 0 0 1 0 1 0 0 0 0 0
100 100 56 94 98 100 100 18 73 100 100 85 5 7 5 76 5 10 60 5 6 6 5 5 5 4 5 5 5 5 1 5 5 1 0 0 0 0 0 0 0 0 0 0 0 0 0
89 100 100 100 63 100 100 32 100 100 94 57 5 6 20 99 64 70 99 99 61 7 7 5 5 10 5 5 5 0 4 0 5 5 4 0 0 0 0 0 0 0 5 0 5 5 0
100 100 100 100 100 60 100 81 100 99 53 85 17 5 81 69 90 86 100 100 73 8 5 5 12 25 6 58 28 5 5 1 0 5 5 5 0 0 0 0 0 0 7 2 5 4 0
5 100 100 100 100 23 44 100 100 14 80 100 65 29 100 63 69 35 78 89 67 7 5 5 9 14 45 5 2 3 51 5 0 0 5 16 6 0 0 0 0 5 25 23 3 0 1
5 99 100 95 100 11 100 100 100 53 8 66 72 88 66 6 27 63 54 66 34 29 5 5 5 5 26 11 5 5 5 8 4 0 2 54 5 0 0 0 0 5 5 5 23 4 1
94 100 100 100 89 100 100 100 72 57 5 12 55 33 9 10 5 5 20 47 5 5 20 5 5 19 5 5 4 5 1 0 0 0 0 11 20 0 0 0 0 0 3 1 1 0 0
99 98 100 100 91 100 100 100 5 6 9 10 42 66 75 11 9 37 20 5 5 22 21 5 5 14 23 24 0 0 0 0 0 0 0 19 5 2 0 0 0 0 0 0 0 0 0
96 100 100 100 100 100 100 100 85 88 86 89 56 52 11 34 6 40 36 7 5 5 66 14 21 55 45 37 2 0 0 0 0 0 2 5 52 7 0 0 0 0 0 0 0 0 0
97 100 100 100 100 100 96 78 80 94 97 74 54 19 30 64 90 6 5 5 5 5 22 58 66 28 5 5 0 0 0 0 0 0 63 28 22 6 0 0 2 0 0 0 0 0 0
48 93 71 30 100 61 100 78 5 5 47 77 72 10 31 11 6 15 7 30 8 5 5 5 13 8 5 5 1 0 0 1 0 42 100 88 50 6 4 0 5 4 3 0 0 0 0
14 13 19 36 100 100 100 100 5 5 25 80 96 21 5 5 5 16 24 69 6 9 36 5 5 3 1 0 0 3 0 15 5 62 100 83 49 54 23 1 14 5 5 2 0 0 1
5 15 77 82 100 100 100 100 53 5 6 5 54 45 18 19 39 8 31 38 21 40 5 4 2 0 0 0 0 4 5 51 82 98 100 99 91 57 100 30 20 5 0 0 0 0 0
34 6 92 24 50 69 100 100 100 2 5 5 58 10 32 74 100 56 42 14 5 2 0 5 5 5 0 2 0 32 98 10 100 96 100 100 100 100 91 84 43 5 0 0 0 0 0
100 19 44 100 36 68 89 100 100 40 5 9 6 50 51 54 36 6 5 5 0 0 0 0 4 56 92 77 22 83 14 56 100 77 99 100 100 88 99 81 5 3 4 0 0 0 0
100 100 100 100 46 35 37 5 88 100 90 64 35 48 80 80 5 5 1 0 0 2 78 5 8 99 100 100 100 79 83 100 100 100 100 100 100 100 35 5 4 0 2 0 0 0 0
100 100 100 100 100 100 89 2 100 87 100 100 100 70 84 46 2 0 2 0 5 68 96 97 6 99 100 100 75 5 91 100 100 100 100 100 100 80 16 5 14 4 0 0 0 0 0
100 100 100 100 100 100 100 59 52 100 100 70 100 83 100 92 1 20 63 9 89 14 98 98 6 100 100 100 31 8 100 100 100 100 100 100 100 100 82 8 3 5 0 0 0 0 0
100 100 100 100 100 100 100 100 45 76 100 97 87 92 94 76 0 2 42 44 86 63 97 100 100 100 40 81 64 100 100 100 100 100 100 100 100 100 97 8 5 0 5 4 0 0 0
100 100 100 100 100 100 100 100 100 100 100 93 38 75 86 92 38 8 77 96 100 100 100 90 19 61 9 100 94 100 100 100 100 100 100 100 100 100 100 94 80 5 5 5 2 0 0
98 100 100 100 100 100 100 100 83 96 99 100 65 87 100 100 46 44 100 100 67 100 64 10 22 61 56 100 100 100 100 98 100 100 100 100 100 100 100 100 19 56 64 5 5 5 5

GFSGBSN_prec_cloud_144.txt.gz
Cloud_Cover
100 100 67 7 94 100 100 85 90 100 100 100 100 100 100 100 100 99 38 18 64 100 100 100 86 21 5 0 0 0 0 0 0 0 0 0 0 0 5 5 5 5 0 1 91 100 76
100 100 100 71 100 100 100 100 100 97 100 98 100 100 100 100 95 5 5 58 100 100 100 100 14 14 0 0 0 0 0 0 0 0 0 0 0 0 1 5 9 12 4 0 1 100 100
100 100 95 100 100 100 29 4 24 48 100 94 100 100 100 100 34 30 95 100 100 100 100 98 0 1 0 0 0 0 0 0 0 0 0 0 0 0 0 1 5 5 5 0 0 31 100
100 100 100 100 100 100 27 12 13 100 100 100 100 100 100 96 11 26 88 36 83 100 96 8 2 0 0 0 0 0 0 0 0 0 0 0 0 0 0 0 1 22 26 36 4 4 0
100 100 97 100 100 93 31 7 13 100 94 99 100 100 97 0 10 8 9 3 3 2 16 2 3 0 0 0 0 0 0 0 0 0 0 0 0 0 0 2 31 3 98 70 5 5 3
98 100 98 100 100 100 99 1 11 100 100 100 100 96 14 5 5 5 5 5 5 8 5 5 5 5 5 5 1 3 0 0 0 0 0 0 0 0 0 4 79 93 76 30 75 5 5
75 100 100 100 100 100 100 75 5 100 91 100 100 5 5 5 5 0 25 5 5 8 5 3 5 5 5 5 5 5 4 5 0 0 0 0 0 0 0 0 43 5 100 100 61 5 0
100 100 100 45 100 99 100 100 8 100 100 100 36 75 78 9 5 5 16 5 5 5 5 5 5 5 13 5 5 5 0 4 5 4 0 0 0 0 0 0 0 1 16 98 7 5 0
100 100 100 98 70 4 60 100 47 100 100 88 9 75 78 100 9 38 5 5 5 0 0 5 5 5 5 5 5 4 5 0 3 3 5 0 0 0 0 0 0 1 7 90 37 0 0
20 100 100 100 100 95 8 7 63 98 79 31 18 78 36 70 23 6 5 5 5 5 5 5 5 32 21 5 5 5 5 4 0 3 0 2 3 0 0 0 0 0 4 15 6 0 6
90 100 100 100 100 72 8 43 100 64 7 86 88 31 64 86 26 8 5 26 15 5 5 6 6 5 5 10 54 98 78 6 5 5 0 0 3 5 0 0 0 0 4 5 4 0 4
5 72 100 100 95 39 5 36 73 28 91 70 5 42 97 72 46 34 47 49 5 12 5 8 7 8 48 86 39 5 5 9 5 0 1 0 0 3 4 0 0 0 0 3 1 5 9
5 56 100 100 100 13 15 92 92 5 16 43 7 49 96 27 85 9 70 41 62 6 9 54 34 6 5 62 43 14 6 5 5 5 2 5 2 0 2 4 0 0 0 35 54 97 40
21 14 24 76 53 81 94 96 68 5 5 5 39 43 47 5 8 32 81 76 30 9 5 5 5 5 5 34 56 77 62 10 5 4 4 5 0 0 0 5 0 0 0 82 100 100 100
35 38 85 100 100 100 86 74 14 5 5 96 72 5 5 5 21 28 56 46 36 9 6 5 5 5 25 5 48 100 82 72 5 5 5 3 0 0 0 4 5 0 0 79 99 47 89
62 100 98 100 100 94 59 79 81 84 66 37 92 83 30 5 11 10 5 10 57 6 5 5 5 5 5 6 78 100 81 31 5 0 0 0 0 0 0 2 8 0 0 3 5 30 28
52 93 100 100 81 98 76 100 74 94 79 62 90 98 42 56 26 24 5 5 5 5 5 5 5 5 5 7 82 100 100 29 5 5 0 0 0 0 0 0 5 1 0 1 16 47 5
15 5 6 47 35 74 100 100 6 6 28 10 30 51 25 12 6 6 16 9 5 5 5 5 5 5 5 5 52 98 100 37 5 5 0 0 0 4 0 0 5 5 3 5 5 5 2
77 84 40 40 82 54 81 100 57 5 52 4 7 8 5 48 5 5 32 33 31 6 58 69 41 43 5 5 28 28 9 5 0 0 0 0 0 5 6 8 81 63 1 8 5 5 86
46 7 20 6 5 48 41 100 23 5 4 10 2 3 3 5 5 5 5 63 40 32 50 92 38 50 5 12 6 5 4 5 3 0 1 1 4 4 93 86 41 20 11 5 14 37 5
100 34 54 51 6 23 98 82 5 5 3 9 0 2 5 5 5 5 8 72 97 87 100 43 68 54 29 5 4 0 4 5 16 5 12 4 2 66 100 100 100 79 43 5 5 34 100
100 100 27 81 6 30 23 15 5 5 5 4 0 0 0 4 5 5 5 5 49 85 99 51 5 74 16 1 0 0 0 0 5 96 100 51 6 57 100 100 82 97 82 5 0 4 5
84 84 97 96 84 17 6 5 6 5 5 5 0 0 0 0 0 4 7 5 10 8 6 5 4 5 5 17 27 0 9 25 86 45 100 95 77 94 100 100 92 100 33 3 0 0 0
5 24 91 84 100 86 81 5 14 66 27 58 22 1 1 0 2 1 3 2 12 83 6 2 0 0 2 1 3 100 100 100 100 100 100 100 86 100 100 100 84 100 9 1 0 0 0
15 60 7 98 100 100 100 82 5 15 91 98 91 63 60 19 5 4 5 5 5 5 1 0 0 0 0 4 3 77 100 100 100 100 100 100 100 100 94 100 100 98 5 1 0 0 0
59 22 100 100 100 100 100 100 9 5 99 70 95 71 64 54 27 7 5 5 5 4 0 3 0 4 77 100 74 100 100 100 100 100 30 100 100 100 100 100 100 66 5 0 0 0 0
100 69 93 100 100 100 100 100 94 13 22 66 95 70 71 92 27 21 10 6 6 10 2 2 1 36 100 84 96 100 100 100 100 65 90 100 100 100 100 100 100 94 30 0 1 0 0
100 86 94 98 100 100 100 100 100 10 61 80 100 44 100 100 100 100 94 6 28 28 40 14 92 100 100 100 97 100 100 92 89 100 100 100 100 100 100 100 100 100 94 5 1 0 0
89 92 72 100 100 96 100 100 100 60 38 91 75 100 100 100 26 11 83 62 37 100 91 89 100 100 100 100 98 55 94 91 100 100 100 100 100 100 100 100 100 99 100 60 5 4 5

GFSGBSN_prec_cloud_147.txt.gz
Cloud_Cover
100 100 65 100 100 98 20 2 4 7 28 93 100 98 100 100 94 19 28 65 100 100 100 50 10 0 2 0 0 0 0 0 0 0 0 0 0 2 4 67 31 80 25 1 6 100 100
100 99 100 100 100 97 9 14 29 100 100 31 67 76 100 23 6 6 2 97 100 100 94 51 8 35 0 0 0 0 0 0 0 0 0 0 0 1 0 4 48 34 33 4 32 98 100
100 100 98 100 100 100 1 10 7 95 31 97 100 100 98 21 8 12 9 21 52 48 100 52 3 2 0 0 0 0 0 0 0 0 0 0 0 0 0 3 8 38 25 0 14 2 90
100 100 41 99 100 100 96 1 6 100 100 100 100 100 21 0 0 0 0 0 1 48 24 0 5 0 0 0 0 0 0 0 0 0 0 0 0 0 0 1 5 4 99 100 10 0 0
99 100 100 86 100 100 100 97 0 100 100 100 100 39 0 0 4 5 4 3 1 3 4 3 5 2 1 2 0 0 0 0 0 0 0 0 0 0 0 4 76 19 78 86 98 0 0
73 93 89 98 49 100 99 100 0 100 100 100 97 0 0 1 4 5 5 11 5 50 10 5 5 5 29 50 61 10 5 4 1 0 0 0 0 0 0 1 93 100 49 87 25 62 0
99 100 100 100 72 0 0 38 0 100 100 100 20 5 5 5 5 5 35 5 5 5 5 5 5 5 5 5 5 5 5 5 5 5 0 1 0 0 0 0 91 100 100 12 45 53 0
30 95 100 100 100 86 7 20 62 100 70 12 10 6 5 5 5 8 15 5 5 5 5 5 5 5 5 5 5 5 5 5 5 5 5 2 1 1 0 0 0 10 5 16 54 83 0
0 0 71 100 100 97 16 9 5 43 5 8 55 6 5 8 12 12 5 5 5 5 5 5 5 5 5 5 5 5 5 5 5 5 4 0 0 3 4 0 0 0 5 100 99 5 0
2 91 100 100 98 24 5 5 15 5 5 5 37 72 91 70 13 5 5 5 5 5 5 5 5 31 5 5 6 5 5 5 6 46 12 5 0 0 0 4 0 0 5 89 100 18 45
0 6 97 100 61 88 5 5 5 10 79 52 10 100 100 98 9 5 5 5 5 4 5 20 5 5 6 13 15 5 5 5 5 5 9 5 5 0 0 0 5 0 12 90 40 5 5
0 2 5 53 76 8 5 6 5 5 5 5 13 96 100 62 30 5 5 5 5 5 5 11 5 7 34 11 34 9 41 39 5 5 1 5 5 3 0 0 0 2 2 5 5 19 34
3 5 5 5 19 5 5 5 5 5 5 5 5 55 88 14 5 5 5 5 5 5 5 20 5 8 27 60 74 29 37 67 21 5 4 5 4 2 0 0 0 0 3 4 91 100 98
32 52 45 11 93 98 83 54 5 18 72 8 10 70 6 20 28 5 5 5 5 9 5 5 5 10 35 83 26 36 99 58 7 5 5 5 5 0 5 5 0 0 2 5 85 100 100
46 9 5 16 43 9 36 82 96 11 52 99 25 6 5 5 5 5 6 5 5 26 13 5 5 5 25 5 27 88 25 83 11 5 10 5 5 5 5 1 0 0 0 12 99 100 98
5 6 25 38 60 5 5 69 98 5 5 71 73 25 9 5 5 12 10 11 54 88 5 5 5 25 13 5 43 61 19 40 5 23 35 24 5 5 0 1 5 0 3 3 26 76 100
57 47 30 33 5 5 5 5 24 5 5 5 5 6 7 7 5 11 41 44 5 70 74 23 5 15 91 35 80 72 5 12 5 26 100 71 17 5 5 4 2 1 0 0 62 100 100
98 49 9 11 5 5 5 5 5 5 22 7 5 5 5 5 5 4 0 5 5 5 25 5 5 15 55 47 89 46 28 99 71 95 100 45 7 5 43 1 1 4 0 5 52 40 67
14 41 60 53 50 34 30 31 42 35 5 5 5 5 5 5 5 5 3 0 2 5 5 5 18 22 46 100 100 100 100 97 69 90 6 84 91 5 9 99 5 4 35 12 81 100 100
100 100 100 100 100 100 100 99 6 5 5 13 5 5 7 3 0 0 4 5 5 4 1 6 72 41 97 100 99 100 100 70 75 7 68 19 8 5 48 87 69 4 0 4 92 100 100
100 100 100 100 100 95 76 47 8 5 5 6 5 5 2 4 72 5 5 5 5 25 15 5 5 21 58 76 100 100 100 19 17 5 15 5 2 5 2 100 87 100 10 30 98 94 100
5 5 22 96 96 82 67 5 5 5 5 5 5 5 5 0 0 1 0 0 5 5 56 85 71 10 84 100 100 98 48 82 57 41 5 5 5 5 5 92 100 100 68 100 100 90 5
5 4 5 5 16 37 5 5 8 5 5 5 5 5 4 0 0 0 1 4 34 7 5 6 16 56 90 86 95 100 82 42 97 91 37 4 44 92 74 81 100 100 93 100 100 27 31
21 5 5 5 12 98 68 59 5 5 22 5 5 0 1 0 4 5 5 9 8 6 16 6 5 4 4 6 82 67 5 2 2 4 2 99 82 30 61 68 96 42 100 100 100 98 88
86 18 5 5 83 100 100 100 81 35 81 60 9 0 1 1 3 5 5 24 79 99 46 5 5 5 5 12 25 5 5 5 5 4 21 77 99 100 100 94 90 100 100 100 100 62 5
23 8 9 36 95 99 100 99 98 16 7 61 2 20 1 4 26 5 5 16 100 100 100 100 99 21 5 5 5 13 20 60 34 84 100 100 100 100 100 100 99 100 100 100 100 38 5
5 21 98 34 66 78 68 100 87 6 5 28 74 68 4 5 1 5 6 34 100 100 100 100 100 69 5 3 31 100 98 100 97 97 100 100 100 100 100 100 100 100 100 100 100 23 5
71 76 37 5 14 95 97 100 100 88 0 34 77 98 36 44 7 5 16 93 100 100 100 100 98 89 6 95 93 100 100 100 90 100 100 100 100 100 100 100 100 100 100 100 100 100 5
33 5 27 5 7 69 100 100 100 100 0 19 83 75 100 96 5 5 80 100 100 71 15 66 86 64 90 99 100 100 100 100 100 100 100 100 100 100 84 100 100 100 100 99 100 100 28

GFSGBSN_prec_cloud_150.txt.gz
Cloud_Cover
100 63 80 100 100 95 3 21 60 100 100 100 100 100 100 14 10 18 14 27 34 55 90 32 16 14 4 0 0 0 0 0 0 0 0 0 0 0 67 94 20 15 100 72 30 69 98
100 96 0 98 100 100 75 0 55 100 100 100 100 100 52 0 0 0 0 0 29 53 15 13 10 36 0 0 0 0 0 0 0 0 0 0 0 1 12 4 4 100 94 18 20 11 76
100 100 94 36 100 100 100 100 0 100 100 100 100 98 0 0 0 0 0 0 0 39 24 17 15 3 0 0 0 0 0 0 0 0 0 0 0 0 2 4 4 10 100 45 98 50 93
97 100 100 70 99 100 95 99 47 98 100 100 100 5 0 0 0 0 0 0 0 2 16 1 12 0 0 0 0 0 0 0 0 0 0 0 0 0 0 0 38 8 12 100 100 100 92
0 14 77 100 38 31 0 0 0 1 100 100 82 0 0 0 0 0 0 0 0 2 0 14 2 2 1 3 0 0 0 0 0 0 0 0 0 0 0 0 42 58 58 100 100 100 100
27 100 97 100 26 95 9 0 0 0 100 19 0 0 0 5 5 5 6 5 5 33 12 5 5 5 5 5 5 5 2 0 0 0 0 0 0 0 0 0 66 100 92 100 100 100 100
0 0 100 100 100 100 50 0 0 0 0 0 0 0 0 5 5 9 16 5 5 5 5 22 44 5 5 5 5 5 5 5 5 0 0 0 0 0 0 0 9 100 9 100 100 100 99
0 1 81 100 100 93 3 0 6 21 5 5 5 2 5 5 7 7 14 5 5 5 5 5 5 5 5 5 5 5 5 5 1 0 0 0 3 0 0 0 0 3 84 100 62 43 10
0 63 98 100 64 62 35 85 42 5 4 2 4 5 5 4 9 11 5 5 5 5 5 5 5 5 5 5 5 5 5 5 1 0 0 0 0 0 0 0 0 0 4 99 59 34 4
2 2 3 0 1 6 6 3 4 4 5 5 5 5 5 85 6 20 5 5 5 5 5 12 5 5 5 6 44 5 5 5 5 5 0 0 0 5 5 0 0 0 0 60 6 97 47
0 1 5 5 5 1 4 5 5 5 5 5 67 17 39 95 14 100 100 32 5 5 19 11 5 9 5 5 40 5 10 5 5 5 5 0 2 3 0 0 0 0 0 43 45 2 0
0 0 0 2 4 5 5 5 5 5 5 5 5 21 93 30 30 13 5 5 5 2 5 11 6 5 5 5 5 30 5 10 5 5 16 4 5 4 4 5 2 0 0 2 88 26 5
0 1 1 5 5 5 5 5 5 5 5 5 5 6 89 5 5 5 6 5 5 4 5 19 17 5 5 5 5 7 5 15 37 5 5 5 5 5 5 5 5 5 0 0 2 5 1
91 76 5 32 5 5 50 100 100 100 99 98 49 29 93 98 83 7 5 8 5 5 1 5 5 5 5 5 9 68 80 92 93 90 5 5 5 5 8 25 5 5 5 3 1 92 19
5 23 11 19 5 5 6 35 5 5 5 5 17 5 6 54 80 56 77 98 54 7 56 5 23 24 5 99 99 100 100 100 69 5 18 5 6 5 59 7 35 5 5 6 0 76 59
13 5 5 5 5 5 28 25 5 5 5 10 52 23 25 11 5 42 42 18 13 40 87 62 95 100 100 100 88 92 100 100 99 32 5 5 6 25 60 42 100 5 5 0 0 1 92
88 50 5 5 5 5 7 26 22 15 10 5 6 7 5 5 5 5 14 5 5 8 30 5 5 5 21 90 90 100 79 42 86 10 18 5 12 17 12 100 100 29 5 1 1 0 4
6 13 36 47 67 82 58 21 50 74 57 6 27 10 68 5 5 5 5 5 5 5 23 5 5 3 6 79 30 8 100 100 81 78 28 99 34 13 100 100 100 5 49 4 3 0 25
42 78 100 100 100 100 100 100 100 100 100 100 100 54 100 9 5 29 22 15 5 5 5 5 2 0 5 48 45 66 77 91 77 100 100 100 100 99 50 25 100 43 5 5 0 22 74
92 99 99 95 90 99 92 52 54 83 100 100 90 16 77 50 5 5 5 5 45 32 6 3 5 3 3 2 8 13 100 100 5 72 100 100 100 100 69 18 100 100 5 4 49 25 20
6 16 98 80 56 67 41 24 5 5 5 18 47 10 5 5 82 30 28 5 5 5 99 20 5 5 5 5 4 5 97 100 91 61 100 100 100 100 100 67 94 98 86 49 0 4 100
44 97 19 23 5 5 5 5 5 5 57 6 32 5 6 7 5 37 74 5 0 0 5 46 100 86 25 100 74 80 100 31 56 96 100 100 100 100 14 13 100 97 99 62 69 0 83
88 98 72 67 66 54 28 40 5 5 5 5 53 59 63 66 94 10 5 5 22 13 22 76 28 96 49 32 98 37 46 6 78 45 27 100 92 77 64 86 29 50 72 100 56 2 2
78 84 64 84 89 72 96 26 5 5 5 15 5 10 24 55 13 5 65 85 84 78 74 18 85 18 4 35 48 72 72 3 5 62 94 92 100 28 17 63 6 1 53 100 100 84 91
100 100 88 77 79 47 62 40 7 5 5 5 5 5 5 6 5 2 10 47 8 19 8 4 31 32 59 100 100 100 99 6 5 5 18 28 86 29 5 5 1 89 30 98 99 47 95
99 98 60 26 5 5 6 27 66 5 5 2 15 8 1 4 13 5 5 5 5 25 5 8 50 36 100 100 100 99 100 26 28 5 5 5 1 5 13 5 0 8 76 100 100 64 27
100 91 60 5 34 6 31 17 86 59 5 4 5 66 8 5 0 5 16 43 5 31 50 43 89 100 66 100 100 100 100 90 33 68 100 58 5 3 46 4 8 93 96 67 86 100 45
72 51 7 44 58 24 5 49 94 69 36 7 20 92 48 61 0 0 1 4 5 5 49 67 88 68 100 84 100 100 100 100 61 37 88 86 43 1 5 60 54 10 52 100 100 100 80
95 98 59 47 5 5 5 100 50 88 52 6 19 100 71 39 3 0 0 0 5 5 51 22 56 100 100 100 100 100 100 40 13 41 100 85 89 100 94 90 99 100 100 100 100 100 99